タットル-ジャコビニ-クレサーク彗星

41P/Tuttle-Giacobini-Kresak (2011)

English version
Home page
Updated on December 25, 2016

---------------------------------------------------------------------

・ プロフィール

・ 軌道要素

Epoch 2011 Nov. 15.0 TT = JDT 2455880.5
T 2011 Nov. 11.83969 TT                                 MPCW
q   1.0494385            (2000.0)            P               Q
n   0.18167078     Peri.   62.18140     -0.91163696     +0.39845654
a   3.0875404      Node   141.06357     -0.41033179     -0.86845780
e   0.6601053      Incl.    9.22501     -0.02336381     -0.29498041
P   5.43
From 446 observations 2006 Feb. 3-2016 Dec. 8, mean residual 0".8.
     Nongravitational parameters A1 = +0.67, A2 = -0.0160.

・ 星図

・ 光度変化

        m1 = 13.5 + 5 logΔ + 18.0 log r  [   ,-65]  (              〜2011年 9月 8日)
        m1 =  8.5 + 5 logΔ + 55   log r  [-65,  0]  (2011年 9月 8日〜2011年11月12日)
        m1 =  9.0 + 5 logΔ + 30   log r  [  0,   ]  (2011年11月12日〜              )

---------------------------------------------------------------------

軌道要素はM.P.E.C. 2016-X84に掲載されたものです。
星図はステラナビゲータ Ver.8 (アストロアーツ) で作成したものです。
光度グラフはComet for Windowsで作成したものです。

---------------------------------------------------------------------

Copyright(C) Seiichi Yoshida (comet@aerith.net). All rights reserved.